彩虹 10星 (RADUGA 10)

导读 | 豆包AI

RADUGA-10(“虹”10)卫星是独联体(CIS,继承自苏联)“虹”(Raduga)系列第一代地球静止轨道通信卫星,于1981年10月9日发射升空。作为苏联首个同步通信卫星系列的一员,该卫星基于KAUR-3平台打造,配备C频段转发器,主要承担东半球区域军事通信、民用电视转播以及电话电报业务服务,是冷战时期苏联空间通信体系的重要组成部分,设计寿命约3年,为苏联及后续独联体国家的通信服务提供了支撑。

基本信息
目录编号:
12897
目录名称:
RADUGA 10
国际标识:
1981-102A
轨道中心:
EARTH
卫星名称:
彩虹 10星
卫星全名:
彩虹 10星 (RADUGA 10)
卫星状态:
在轨 (已飞行16226 天)
发射日期:
1981-10-09 UTC
国别 :
俄罗斯(独联体) (CIS)
星等 :
--
轨道信息
数据来源 国际轨道数据 AOE轨道数据
星历时间 2026-03-13T22:00:07+0800
9小时前
查看轨道信息
2026-03-11T03:00:00+0800
3天前
查看轨道信息
半长轴 42160.328km 42160.468km
偏心率 0.0002822 0.000287
轨道倾角 6.931° 6.938°
近地点辐角 270.977° 270.196°
升交点赤经 295.636° 295.656°
平近点角 241.656° 314.479°
近地点 35770.293km 35770.23km
远地点 35794.089km 35794.432km
周期 1435.872分钟 1435.879分钟
每日圈数 1.002875 1.00287
详细信息
平衡模式:
三轴稳定
覆盖范围:
全球
运营商:
俄罗斯国家航天集团
运营商所在国:
俄罗斯
制造商(研发单位):
普里克拉德诺伊·梅哈尼基设计局
制造商所在国:
俄罗斯联邦
使用方式:
暂无
卫星简介
彩虹卫星(Raduga, Gran)是苏联用于军事和通信目的的一系列地球静止通信卫星。彩虹卫星旨在支持军事通信、Orbita地面电视网络,并在整个东半球(极地地区除外)提供电话和电报通信。该卫星已退役。
2D轨道图
3D轨道图
轨道高度分析图
轨道倾角分析图
轨道综合分析图
查看轨道综合分析图